Time,TemperatureF,DewpointF,PressureIn,WindDirection,WindDirectionDegrees,WindSpeedMPH,WindSpeedGustMPH,Humidity,HourlyPrecipIn,Conditions,Clouds,dailyrainin,SoftwareType,DateUTC
2013-06-06 00:00:00,57.0,49.5,30.18,North,0,0.0,0.0,76,0.00,,,0.00,pywws,2013-06-06 04:00:00,
2013-06-06 00:01:00,57.0,49.5,30.18,North,0,0.0,0.0,76,0.00,,,0.00,pywws,2013-06-06 04:01:00,
2013-06-06 00:03:00,57.0,49.5,30.18,North,0,0.0,0.0,76,0.00,,,0.00,pywws,2013-06-06 04:03:00,
2013-06-06 00:04:00,56.8,49.4,30.18,North,0,0.0,0.0,76,0.00,,,0.00,pywws,2013-06-06 04:04:00,
2013-06-06 00:09:00,56.5,49.4,30.18,North,0,0.0,0.0,77,0.00,,,0.00,pywws,2013-06-06 04:09:00,
2013-06-06 00:15:00,56.1,49.7,30.18,North,0,0.0,0.0,79,0.00,,,0.00,pywws,2013-06-06 04:15:00,
2013-06-06 00:19:00,55.8,49.3,30.18,North,0,0.0,0.0,79,0.00,,,0.00,pywws,2013-06-06 04:19:00,
2013-06-06 00:25:00,55.4,49.3,30.18,West,270,0.0,0.0,80,0.00,,,0.00,pywws,2013-06-06 04:25:00,
2013-06-06 00:31:00,55.0,49.6,30.18,North,0,0.0,0.0,82,0.00,,,0.00,pywws,2013-06-06 04:31:00,
2013-06-06 00:37:00,55.0,49.6,30.18,North,0,0.0,0.0,82,0.00,,,0.00,pywws,2013-06-06 04:37:00,
2013-06-06 00:44:00,55.6,50.8,30.18,NW,315,0.0,0.0,84,0.00,,,0.00,pywws,2013-06-06 04:44:00,
2013-06-06 00:51:00,55.6,51.1,30.18,North,0,0.0,0.0,85,0.00,,,0.00,pywws,2013-06-06 04:51:00,
2013-06-06 00:59:00,55.4,50.6,30.18,North,0,0.0,0.0,84,0.00,,,0.00,pywws,2013-06-06 04:59:00,
2013-06-06 01:05:00,55.4,50.3,30.18,West,270,0.0,0.0,83,0.00,,,0.00,pywws,2013-06-06 05:05:00,
2013-06-06 01:12:00,55.2,50.1,30.18,West,270,0.0,0.0,83,0.00,,,0.00,pywws,2013-06-06 05:12:00,
2013-06-06 01:17:00,55.2,49.8,30.17,North,0,0.0,0.0,82,0.00,,,0.00,pywws,2013-06-06 05:17:00,
2013-06-06 01:23:00,55.8,50.3,30.17,North,0,0.0,0.0,82,0.00,,,0.00,pywws,2013-06-06 05:23:00,
2013-06-06 01:28:00,55.4,50.0,30.18,North,0,0.0,0.0,82,0.00,,,0.00,pywws,2013-06-06 05:28:00,
2013-06-06 01:34:00,55.0,49.6,30.18,North,0,0.0,0.0,82,0.00,,,0.00,pywws,2013-06-06 05:34:00,
2013-06-06 01:40:00,54.7,49.3,30.18,North,0,0.0,0.0,82,0.00,,,0.00,pywws,2013-06-06 05:40:00,
2013-06-06 01:46:00,54.5,49.1,30.18,North,0,0.0,0.0,82,0.00,,,0.00,pywws,2013-06-06 05:46:00,
2013-06-06 01:52:00,54.3,49.3,30.18,North,0,0.0,0.0,83,0.00,,,0.00,pywws,2013-06-06 05:52:00,
2013-06-06 01:57:00,54.0,49.2,30.19,West,270,0.0,0.0,84,0.00,,,0.00,pywws,2013-06-06 05:57:00,
2013-06-06 02:03:00,53.8,49.1,30.18,West,270,0.0,0.0,84,0.00,,,0.00,pywws,2013-06-06 06:03:00,
2013-06-06 02:09:00,53.4,48.7,30.18,West,270,0.0,0.0,84,0.00,,,0.00,pywws,2013-06-06 06:09:00,
2013-06-06 02:15:00,53.2,48.8,30.18,West,270,0.0,0.0,85,0.00,,,0.00,pywws,2013-06-06 06:15:00,
2013-06-06 02:20:00,53.4,49.0,30.18,West,270,0.0,0.0,85,0.00,,,0.00,pywws,2013-06-06 06:20:00,
2013-06-06 02:27:00,53.6,49.2,30.19,West,270,0.0,0.0,85,0.00,,,0.00,pywws,2013-06-06 06:27:00,
2013-06-06 02:32:00,53.6,49.2,30.19,West,270,0.0,0.0,85,0.00,,,0.00,pywws,2013-06-06 06:32:00,
2013-06-06 02:38:00,53.6,49.2,30.19,West,270,0.0,0.0,85,0.00,,,0.00,pywws,2013-06-06 06:38:00,
2013-06-06 02:44:00,53.2,49.2,30.19,West,270,0.0,0.0,86,0.00,,,0.00,pywws,2013-06-06 06:44:00,
2013-06-06 02:50:00,53.1,49.3,30.19,West,270,0.0,0.0,87,0.00,,,0.00,pywws,2013-06-06 06:50:00,
2013-06-06 02:57:00,53.2,49.5,30.19,East,90,0.0,0.0,87,0.00,,,0.00,pywws,2013-06-06 06:57:00,
2013-06-06 03:04:00,53.2,49.8,30.19,East,90,0.0,0.0,88,0.00,,,0.00,pywws,2013-06-06 07:04:00,
2013-06-06 03:10:00,53.4,50.0,30.19,East,90,0.0,0.0,88,0.00,,,0.00,pywws,2013-06-06 07:10:00,
2013-06-06 03:16:00,53.4,50.0,30.19,East,90,0.0,0.0,88,0.00,,,0.00,pywws,2013-06-06 07:16:00,
2013-06-06 03:25:00,53.1,49.6,30.18,North,0,0.0,0.0,88,0.00,,,0.00,pywws,2013-06-06 07:25:00,
2013-06-06 03:31:00,53.1,49.6,30.19,North,0,0.0,0.0,88,0.00,,,0.00,pywws,2013-06-06 07:31:00,
2013-06-06 03:36:00,52.9,49.4,30.19,North,0,0.0,0.0,88,0.00,,,0.00,pywws,2013-06-06 07:36:00,
2013-06-06 03:42:00,52.5,49.1,30.19,North,0,0.0,0.0,88,0.00,,,0.00,pywws,2013-06-06 07:42:00,
2013-06-06 03:48:00,52.5,49.1,30.19,North,0,0.0,0.0,88,0.00,,,0.00,pywws,2013-06-06 07:48:00,
2013-06-06 03:54:00,52.7,49.5,30.19,North,0,0.0,0.0,89,0.00,,,0.00,pywws,2013-06-06 07:54:00,
2013-06-06 04:01:00,52.7,49.5,30.19,North,0,0.0,0.0,89,0.00,,,0.00,pywws,2013-06-06 08:01:00,
2013-06-06 04:07:00,52.7,49.5,30.19,North,0,0.0,0.0,89,0.00,,,0.00,pywws,2013-06-06 08:07:00,
2013-06-06 04:14:00,52.3,49.2,30.19,North,0,0.0,0.0,89,0.00,,,0.00,pywws,2013-06-06 08:14:00,
2013-06-06 04:20:00,52.2,49.3,30.19,North,0,0.0,0.0,90,0.00,,,0.00,pywws,2013-06-06 08:20:00,
2013-06-06 04:25:00,51.6,49.1,30.19,North,0,0.0,0.0,91,0.00,,,0.00,pywws,2013-06-06 08:25:00,
2013-06-06 04:31:00,51.4,48.9,30.19,North,0,0.0,0.0,91,0.00,,,0.00,pywws,2013-06-06 08:31:00,
2013-06-06 04:36:00,51.1,48.5,30.19,North,0,0.0,0.0,91,0.00,,,0.00,pywws,2013-06-06 08:36:00,
2013-06-06 04:42:00,50.9,48.7,30.19,North,0,0.0,0.0,92,0.00,,,0.00,pywws,2013-06-06 08:42:00,
2013-06-06 04:48:00,50.4,48.4,30.19,North,0,0.0,0.0,93,0.00,,,0.00,pywws,2013-06-06 08:48:00,
2013-06-06 04:53:00,50.4,48.4,30.19,North,0,0.0,0.0,93,0.00,,,0.00,pywws,2013-06-06 08:53:00,
2013-06-06 04:59:00,50.2,48.5,30.19,North,0,0.0,0.0,94,0.00,,,0.00,pywws,2013-06-06 08:59:00,
2013-06-06 05:04:00,50.0,48.3,30.19,North,0,0.0,0.0,94,0.00,,,0.00,pywws,2013-06-06 09:04:00,
2013-06-06 05:11:00,49.8,48.4,30.19,North,0,0.0,0.0,95,0.00,,,0.00,pywws,2013-06-06 09:11:00,
2013-06-06 05:16:00,49.5,48.4,30.19,North,0,0.0,0.0,96,0.00,,,0.00,pywws,2013-06-06 09:16:00,
2013-06-06 05:24:00,49.6,48.5,30.19,North,0,0.0,0.0,96,0.00,,,0.00,pywws,2013-06-06 09:24:00,
2013-06-06 05:32:00,49.6,48.8,30.19,North,0,0.0,0.0,97,0.00,,,0.00,pywws,2013-06-06 09:32:00,
2013-06-06 05:39:00,49.6,48.8,30.19,North,0,0.0,0.0,97,0.00,,,0.00,pywws,2013-06-06 09:39:00,
2013-06-06 05:44:00,50.0,48.9,30.19,North,0,0.0,0.0,96,0.00,,,0.00,pywws,2013-06-06 09:44:00,
2013-06-06 05:50:00,50.2,49.1,30.19,North,0,0.0,0.0,96,0.00,,,0.00,pywws,2013-06-06 09:50:00,
2013-06-06 05:56:00,50.5,49.4,30.19,North,0,0.0,0.0,96,0.00,,,0.00,pywws,2013-06-06 09:56:00,
2013-06-06 06:02:00,50.7,49.6,30.19,North,0,0.0,0.0,96,0.00,,,0.00,pywws,2013-06-06 10:02:00,
2013-06-06 06:08:00,51.1,50.3,30.19,North,0,0.0,0.0,97,0.00,,,0.00,pywws,2013-06-06 10:08:00,
2013-06-06 06:14:00,51.6,50.8,30.20,North,0,0.0,0.0,97,0.00,,,0.00,pywws,2013-06-06 10:14:00,
2013-06-06 06:20:00,52.0,50.9,30.20,North,0,0.0,0.0,96,0.00,,,0.00,pywws,2013-06-06 10:20:00,
2013-06-06 06:25:00,52.9,51.8,30.19,North,0,0.0,0.0,96,0.00,,,0.00,pywws,2013-06-06 10:25:00,
2013-06-06 06:31:00,53.6,51.9,30.19,North,0,0.0,0.0,94,0.00,,,0.00,pywws,2013-06-06 10:31:00,
2013-06-06 06:36:00,54.9,53.2,30.20,North,0,0.0,0.0,94,0.00,,,0.00,pywws,2013-06-06 10:36:00,
2013-06-06 06:42:00,54.7,53.0,30.19,North,0,0.0,0.0,94,0.00,,,0.00,pywws,2013-06-06 10:42:00,
2013-06-06 06:48:00,55.4,53.1,30.19,North,0,0.0,0.0,92,0.00,,,0.00,pywws,2013-06-06 10:48:00,
2013-06-06 06:54:00,56.5,53.6,30.19,South,180,0.0,0.0,90,0.00,,,0.00,pywws,2013-06-06 10:54:00,
2013-06-06 07:00:00,58.8,54.6,30.20,South,180,0.0,0.0,86,0.00,,,0.00,pywws,2013-06-06 11:00:00,
2013-06-06 07:06:00,60.4,55.2,30.21,East,90,0.0,0.0,83,0.00,,,0.00,pywws,2013-06-06 11:06:00,
2013-06-06 07:11:00,61.2,53.9,30.21,East,90,0.0,0.0,77,0.00,,,0.00,pywws,2013-06-06 11:11:00,
2013-06-06 07:16:00,60.8,52.8,30.21,North,0,0.0,0.0,75,0.00,,,0.00,pywws,2013-06-06 11:16:00,
2013-06-06 07:22:00,60.3,52.3,30.21,North,0,0.0,0.0,75,0.00,,,0.00,pywws,2013-06-06 11:22:00,
2013-06-06 07:28:00,60.1,52.1,30.21,North,0,0.0,0.0,75,0.00,,,0.00,pywws,2013-06-06 11:28:00,
2013-06-06 07:34:00,59.9,52.0,30.21,North,0,0.0,0.0,75,0.00,,,0.00,pywws,2013-06-06 11:34:00,
2013-06-06 07:40:00,60.3,52.7,30.21,North,0,0.0,0.0,76,0.00,,,0.00,pywws,2013-06-06 11:40:00,
2013-06-06 07:45:00,62.4,54.4,30.21,North,0,0.0,0.0,75,0.00,,,0.00,pywws,2013-06-06 11:45:00,
2013-06-06 07:51:00,66.0,57.5,30.21,North,0,0.0,0.0,74,0.00,,,0.00,pywws,2013-06-06 11:51:00,
2013-06-06 07:56:00,66.9,55.2,30.21,West,270,0.0,0.0,66,0.00,,,0.00,pywws,2013-06-06 11:56:00,
2013-06-06 08:02:00,68.7,55.2,30.20,West,270,0.0,0.0,62,0.00,,,0.00,pywws,2013-06-06 12:02:00,
2013-06-06 08:08:00,67.5,53.1,30.20,South,180,0.0,0.0,60,0.00,,,0.00,pywws,2013-06-06 12:08:00,
2013-06-06 08:13:00,69.3,54.3,30.21,West,270,0.0,0.0,59,0.00,,,0.00,pywws,2013-06-06 12:13:00,
2013-06-06 08:19:00,69.3,52.9,30.21,West,270,0.0,0.0,56,0.00,,,0.00,pywws,2013-06-06 12:19:00,
2013-06-06 08:24:00,68.5,51.7,30.21,South,180,0.0,0.0,55,0.00,,,0.00,pywws,2013-06-06 12:24:00,
2013-06-06 08:30:00,69.3,52.9,30.21,East,90,0.0,0.0,56,0.00,,,0.00,pywws,2013-06-06 12:30:00,
2013-06-06 08:36:00,69.6,54.2,30.21,North,0,0.0,0.0,58,0.00,,,0.00,pywws,2013-06-06 12:36:00,
2013-06-06 08:41:00,71.8,53.7,30.20,North,0,0.0,0.0,53,0.00,,,0.00,pywws,2013-06-06 12:41:00,
2013-06-06 08:47:00,69.6,52.2,30.20,North,0,0.0,0.0,54,0.00,,,0.00,pywws,2013-06-06 12:47:00,
2013-06-06 08:52:00,70.7,53.7,30.20,East,90,0.0,0.0,55,0.00,,,0.00,pywws,2013-06-06 12:52:00,
2013-06-06 08:58:00,69.6,51.7,30.20,North,0,0.0,0.0,53,0.00,,,0.00,pywws,2013-06-06 12:58:00,
2013-06-06 09:04:00,71.1,52.0,30.20,West,270,0.0,0.0,51,0.00,,,0.00,pywws,2013-06-06 13:04:00,
2013-06-06 09:09:00,70.0,49.9,30.20,North,0,0.0,0.0,49,0.00,,,0.00,pywws,2013-06-06 13:09:00,
2013-06-06 09:15:00,70.5,49.3,30.19,East,90,0.0,0.0,47,0.00,,,0.00,pywws,2013-06-06 13:15:00,
2013-06-06 09:20:00,71.8,51.6,30.20,North,0,0.0,0.0,49,0.00,,,0.00,pywws,2013-06-06 13:20:00,
2013-06-06 09:26:00,73.6,53.2,30.19,North,0,0.0,0.0,49,0.00,,,0.00,pywws,2013-06-06 13:26:00,
2013-06-06 09:31:00,78.6,54.9,30.20,East,90,0.0,0.0,44,0.00,,,0.00,pywws,2013-06-06 13:31:00,
2013-06-06 09:36:00,73.4,52.5,30.20,South,180,0.0,0.0,48,0.00,,,0.00,pywws,2013-06-06 13:36:00,
2013-06-06 09:42:00,73.9,52.4,30.19,South,180,0.0,0.0,47,0.00,,,0.00,pywws,2013-06-06 13:42:00,
2013-06-06 09:48:00,73.6,51.5,30.19,NW,315,0.0,0.0,46,0.00,,,0.00,pywws,2013-06-06 13:48:00,
2013-06-06 09:54:00,77.0,53.4,30.19,NE,45,0.0,0.0,44,0.00,,,0.00,pywws,2013-06-06 13:54:00,
2013-06-06 10:00:00,75.4,51.3,30.19,South,180,0.0,0.0,43,0.00,,,0.00,pywws,2013-06-06 14:00:00,
2013-06-06 10:05:00,73.0,49.8,30.19,East,90,0.0,0.0,44,0.00,,,0.00,pywws,2013-06-06 14:05:00,
2013-06-06 10:11:00,71.6,49.1,30.19,North,0,0.0,0.0,45,0.00,,,0.00,pywws,2013-06-06 14:11:00,
2013-06-06 10:16:00,71.4,52.9,30.19,South,180,0.0,0.0,52,0.00,,,0.00,pywws,2013-06-06 14:16:00,
2013-06-06 10:22:00,71.2,52.7,30.19,South,180,0.0,0.0,52,0.00,,,0.00,pywws,2013-06-06 14:22:00,
2013-06-06 10:28:00,73.8,53.9,30.19,NW,315,0.0,0.0,50,0.00,,,0.00,pywws,2013-06-06 14:28:00,
2013-06-06 10:33:00,73.8,53.4,30.19,North,0,0.0,0.0,49,0.00,,,0.00,pywws,2013-06-06 14:33:00,
2013-06-06 10:39:00,73.9,52.4,30.19,North,0,0.0,1.6,47,0.00,,,0.00,pywws,2013-06-06 14:39:00,
2013-06-06 10:44:00,72.7,53.5,30.19,West,270,0.0,0.0,51,0.00,,,0.00,pywws,2013-06-06 14:44:00,
2013-06-06 10:50:00,72.3,52.1,30.19,West,270,0.0,0.0,49,0.00,,,0.00,pywws,2013-06-06 14:50:00,
2013-06-06 10:56:00,75.0,55.1,30.19,East,90,0.0,0.0,50,0.00,,,0.00,pywws,2013-06-06 14:56:00,
2013-06-06 11:02:00,73.9,53.6,30.19,NE,45,0.0,0.0,49,0.00,,,0.00,pywws,2013-06-06 15:02:00,
2013-06-06 11:08:00,76.3,54.0,30.19,West,270,0.0,0.0,46,0.00,,,0.00,pywws,2013-06-06 15:08:00,
2013-06-06 11:13:00,73.8,51.7,30.19,West,270,0.0,0.0,46,0.00,,,0.00,pywws,2013-06-06 15:13:00,
2013-06-06 11:19:00,75.2,53.6,30.18,North,0,0.0,0.0,47,0.00,,,0.00,pywws,2013-06-06 15:19:00,
2013-06-06 11:24:00,75.6,53.3,30.18,South,180,0.0,0.0,46,0.00,,,0.00,pywws,2013-06-06 15:24:00,
2013-06-06 11:30:00,75.2,53.6,30.18,West,270,0.0,0.0,47,0.00,,,0.00,pywws,2013-06-06 15:30:00,
2013-06-06 11:36:00,77.2,54.8,30.19,West,270,0.0,0.0,46,0.00,,,0.00,pywws,2013-06-06 15:36:00,
2013-06-06 11:42:00,77.4,54.3,30.18,West,270,0.0,0.0,45,0.00,,,0.00,pywws,2013-06-06 15:42:00,
2013-06-06 11:48:00,78.4,54.7,30.18,South,180,0.0,0.0,44,0.00,,,0.00,pywws,2013-06-06 15:48:00,
2013-06-06 11:53:00,76.6,53.1,30.18,West,270,0.0,0.7,44,0.00,,,0.00,pywws,2013-06-06 15:53:00,
2013-06-06 11:59:00,74.5,52.3,30.18,North,0,0.0,0.0,46,0.00,,,0.00,pywws,2013-06-06 15:59:00,
2013-06-06 12:04:00,74.7,53.1,30.18,South,180,0.0,0.0,47,0.00,,,0.00,pywws,2013-06-06 16:04:00,
2013-06-06 12:10:00,75.7,52.9,30.18,SE,135,0.7,3.8,45,0.00,,,0.00,pywws,2013-06-06 16:10:00,
2013-06-06 12:16:00,73.0,50.4,30.18,West,270,0.0,0.0,45,0.00,,,0.00,pywws,2013-06-06 16:16:00,
2013-06-06 12:21:00,74.1,52.6,30.18,West,270,0.0,1.6,47,0.00,,,0.00,pywws,2013-06-06 16:21:00,
2013-06-06 12:27:00,77.0,54.0,30.17,South,180,0.0,0.0,45,0.00,,,0.00,pywws,2013-06-06 16:27:00,
2013-06-06 12:32:00,76.8,53.2,30.17,West,270,0.0,0.0,44,0.00,,,0.00,pywws,2013-06-06 16:32:00,
2013-06-06 12:38:00,76.6,53.1,30.17,West,270,2.2,8.3,44,0.00,,,0.00,pywws,2013-06-06 16:38:00,
2013-06-06 12:44:00,76.1,53.2,30.17,South,180,0.0,0.0,45,0.00,,,0.00,pywws,2013-06-06 16:44:00,
2013-06-06 12:49:00,75.7,52.3,30.17,North,0,0.0,0.0,44,0.00,,,0.00,pywws,2013-06-06 16:49:00,
2013-06-06 12:55:00,74.1,51.4,30.16,NE,45,0.0,0.0,45,0.00,,,0.00,pywws,2013-06-06 16:55:00,
2013-06-06 13:00:00,74.7,51.9,30.16,South,180,0.0,0.0,45,0.00,,,0.00,pywws,2013-06-06 17:00:00,
2013-06-06 13:06:00,75.4,51.9,30.16,SE,135,0.0,0.0,44,0.00,,,0.00,pywws,2013-06-06 17:06:00,
2013-06-06 13:12:00,74.3,51.6,30.16,West,270,0.0,0.0,45,0.00,,,0.00,pywws,2013-06-06 17:12:00,
2013-06-06 13:17:00,74.7,53.1,30.16,North,0,0.0,0.0,47,0.00,,,0.00,pywws,2013-06-06 17:17:00,
2013-06-06 13:23:00,74.3,52.2,30.16,East,90,0.0,0.0,46,0.00,,,0.00,pywws,2013-06-06 17:23:00,
2013-06-06 13:28:00,74.1,52.0,30.16,SE,135,0.0,0.0,46,0.00,,,0.00,pywws,2013-06-06 17:28:00,
2013-06-06 13:34:00,74.5,52.3,30.16,SW,225,0.0,0.0,46,0.00,,,0.00,pywws,2013-06-06 17:34:00,
2013-06-06 13:40:00,75.7,54.1,30.16,SW,225,0.0,5.4,47,0.00,,,0.00,pywws,2013-06-06 17:40:00,
2013-06-06 13:45:00,72.7,48.3,30.16,North,0,0.0,0.0,42,0.00,,,0.00,pywws,2013-06-06 17:45:00,
2013-06-06 13:51:00,73.4,50.8,30.16,North,0,0.0,4.5,45,0.00,,,0.00,pywws,2013-06-06 17:51:00,
2013-06-06 13:56:00,73.8,51.7,30.16,West,270,0.0,1.6,46,0.00,,,0.00,pywws,2013-06-06 17:56:00,
2013-06-06 14:02:00,73.4,51.9,30.15,South,180,0.0,0.7,47,0.00,,,0.00,pywws,2013-06-06 18:02:00,
2013-06-06 14:08:00,72.7,50.1,30.16,South,180,0.0,0.7,45,0.00,,,0.00,pywws,2013-06-06 18:08:00,
2013-06-06 14:13:00,72.1,48.4,30.15,West,270,0.0,0.0,43,0.00,,,0.00,pywws,2013-06-06 18:13:00,
2013-06-06 14:19:00,71.8,48.7,30.15,NE,45,0.0,0.0,44,0.00,,,0.00,pywws,2013-06-06 18:19:00,
2013-06-06 14:24:00,71.8,49.9,30.15,North,0,0.0,0.0,46,0.00,,,0.00,pywws,2013-06-06 18:24:00,
2013-06-06 14:30:00,71.2,48.8,30.16,North,0,0.0,0.0,45,0.00,,,0.00,pywws,2013-06-06 18:30:00,
2013-06-06 14:36:00,71.6,50.3,30.15,East,90,0.0,0.7,47,0.00,,,0.00,pywws,2013-06-06 18:36:00,
2013-06-06 14:41:00,72.1,50.8,30.15,North,0,0.0,0.0,47,0.00,,,0.00,pywws,2013-06-06 18:41:00,
2013-06-06 14:47:00,72.5,51.1,30.15,East,90,0.0,0.0,47,0.00,,,0.00,pywws,2013-06-06 18:47:00,
2013-06-06 14:52:00,72.1,51.9,30.15,SW,225,0.0,0.0,49,0.00,,,0.00,pywws,2013-06-06 18:52:00,
2013-06-06 14:58:00,73.4,51.9,30.15,West,270,0.0,0.0,47,0.00,,,0.00,pywws,2013-06-06 18:58:00,
2013-06-06 15:04:00,72.1,52.5,30.14,West,270,0.0,0.0,50,0.00,,,0.00,pywws,2013-06-06 19:04:00,
2013-06-06 15:09:00,72.5,53.3,30.15,West,270,0.0,0.0,51,0.00,,,0.00,pywws,2013-06-06 19:09:00,
2013-06-06 15:15:00,72.0,52.8,30.14,South,180,0.0,0.0,51,0.00,,,0.00,pywws,2013-06-06 19:15:00,
2013-06-06 15:20:00,71.4,52.3,30.14,East,90,0.0,0.0,51,0.00,,,0.00,pywws,2013-06-06 19:20:00,
2013-06-06 15:26:00,71.6,52.0,30.14,West,270,0.0,3.8,50,0.00,,,0.00,pywws,2013-06-06 19:26:00,
2013-06-06 15:32:00,71.6,50.3,30.14,South,180,0.0,0.7,47,0.00,,,0.00,pywws,2013-06-06 19:32:00,
2013-06-06 15:38:00,70.7,48.3,30.14,East,90,0.0,0.0,45,0.00,,,0.00,pywws,2013-06-06 19:38:00,
2013-06-06 15:42:00,71.1,48.6,30.14,East,90,0.0,0.0,45,0.00,,,0.00,pywws,2013-06-06 19:42:00,
2013-06-06 15:47:00,70.9,49.6,30.14,West,270,0.0,0.7,47,0.00,,,0.00,pywws,2013-06-06 19:47:00,
2013-06-06 15:52:00,70.2,50.1,30.14,SE,135,0.0,0.0,49,0.00,,,0.00,pywws,2013-06-06 19:52:00,
2013-06-06 15:58:00,70.2,50.1,30.14,SW,225,0.0,0.0,49,0.00,,,0.00,pywws,2013-06-06 19:58:00,
2013-06-06 16:04:00,69.8,49.8,30.14,West,270,0.0,0.0,49,0.00,,,0.00,pywws,2013-06-06 20:04:00,
2013-06-06 16:09:00,69.8,50.3,30.14,West,270,0.0,0.0,50,0.00,,,0.00,pywws,2013-06-06 20:09:00,
2013-06-06 16:15:00,69.1,50.2,30.14,West,270,0.0,0.0,51,0.00,,,0.00,pywws,2013-06-06 20:15:00,
2013-06-06 16:20:00,68.5,48.6,30.14,West,270,0.0,0.0,49,0.00,,,0.00,pywws,2013-06-06 20:20:00,
2013-06-06 16:26:00,68.5,49.7,30.14,South,180,0.0,0.0,51,0.00,,,0.00,pywws,2013-06-06 20:26:00,
2013-06-06 16:32:00,68.2,49.9,30.15,West,270,0.0,0.0,52,0.00,,,0.00,pywws,2013-06-06 20:32:00,
2013-06-06 16:37:00,68.2,50.4,30.15,NE,45,0.0,0.0,53,0.00,,,0.00,pywws,2013-06-06 20:37:00,
2013-06-06 16:43:00,68.2,50.4,30.15,West,270,0.0,0.0,53,0.00,,,0.00,pywws,2013-06-06 20:43:00,
2013-06-06 16:48:00,68.4,50.6,30.14,South,180,0.0,0.7,53,0.00,,,0.00,pywws,2013-06-06 20:48:00,
2013-06-06 16:54:00,68.5,50.7,30.15,West,270,0.0,0.0,53,0.00,,,0.00,pywws,2013-06-06 20:54:00,
2013-06-06 17:00:00,68.2,50.4,30.15,South,180,0.0,0.7,53,0.00,,,0.00,pywws,2013-06-06 21:00:00,
2013-06-06 17:05:00,68.0,49.2,30.14,West,270,0.0,0.7,51,0.00,,,0.00,pywws,2013-06-06 21:05:00,
2013-06-06 17:11:00,67.5,49.2,30.14,East,90,0.0,0.0,52,0.00,,,0.00,pywws,2013-06-06 21:11:00,
2013-06-06 17:16:00,68.0,49.7,30.14,West,270,0.0,0.0,52,0.00,,,0.00,pywws,2013-06-06 21:16:00,
2013-06-06 17:22:00,68.9,51.1,30.14,West,270,0.0,2.2,53,0.00,,,0.00,pywws,2013-06-06 21:22:00,
2013-06-06 17:28:00,67.6,50.4,30.15,South,180,0.7,5.4,54,0.00,,,0.00,pywws,2013-06-06 21:28:00,
2013-06-06 17:33:00,67.6,51.4,30.14,West,270,0.0,0.0,56,0.00,,,0.00,pywws,2013-06-06 21:33:00,
2013-06-06 17:39:00,67.3,51.0,30.14,North,0,0.0,0.0,56,0.00,,,0.00,pywws,2013-06-06 21:39:00,
2013-06-06 17:44:00,67.6,51.4,30.14,West,270,0.0,0.0,56,0.00,,,0.00,pywws,2013-06-06 21:44:00,
2013-06-06 17:50:00,67.1,51.3,30.14,South,180,0.0,0.0,57,0.00,,,0.00,pywws,2013-06-06 21:50:00,
2013-06-06 17:57:00,66.6,50.4,30.14,SE,135,0.0,0.0,56,0.00,,,0.00,pywws,2013-06-06 21:57:00,
2013-06-06 18:02:00,66.4,50.7,30.14,SE,135,0.0,0.0,57,0.00,,,0.00,pywws,2013-06-06 22:02:00,
2013-06-06 18:08:00,66.0,50.8,30.14,East,90,0.0,0.0,58,0.00,,,0.00,pywws,2013-06-06 22:08:00,
2013-06-06 18:13:00,65.7,50.9,30.14,West,270,0.0,2.2,59,0.00,,,0.00,pywws,2013-06-06 22:13:00,
2013-06-06 18:19:00,65.5,51.2,30.15,North,0,0.0,0.0,60,0.00,,,0.00,pywws,2013-06-06 22:19:00,
2013-06-06 18:24:00,65.3,51.1,30.15,South,180,0.0,0.0,60,0.00,,,0.00,pywws,2013-06-06 22:24:00,
2013-06-06 18:30:00,65.3,51.5,30.15,North,0,0.0,0.0,61,0.00,,,0.00,pywws,2013-06-06 22:30:00,
2013-06-06 18:36:00,65.1,51.3,30.15,East,90,0.0,0.0,61,0.00,,,0.00,pywws,2013-06-06 22:36:00,
2013-06-06 18:41:00,65.1,51.3,30.15,NE,45,0.0,0.0,61,0.00,,,0.00,pywws,2013-06-06 22:41:00,
2013-06-06 18:47:00,64.8,51.4,30.15,SW,225,0.0,0.0,62,0.00,,,0.00,pywws,2013-06-06 22:47:00,
2013-06-06 18:52:00,64.6,51.7,30.15,NW,315,0.0,0.0,63,0.00,,,0.00,pywws,2013-06-06 22:52:00,
2013-06-06 18:58:00,64.4,51.1,30.15,East,90,0.0,0.0,62,0.00,,,0.00,pywws,2013-06-06 22:58:00,
2013-06-06 19:04:00,64.2,51.4,30.16,West,270,0.0,0.0,63,0.00,,,0.00,pywws,2013-06-06 23:04:00,
2013-06-06 19:10:00,64.0,51.2,30.16,West,270,0.0,0.0,63,0.00,,,0.00,pywws,2013-06-06 23:10:00,
2013-06-06 19:16:00,63.7,51.3,30.16,West,270,0.0,0.0,64,0.00,,,0.00,pywws,2013-06-06 23:16:00,
2013-06-06 19:21:00,63.5,51.5,30.16,East,90,0.0,0.0,65,0.00,,,0.00,pywws,2013-06-06 23:21:00,
2013-06-06 19:27:00,63.5,51.1,30.16,South,180,0.0,0.0,64,0.00,,,0.00,pywws,2013-06-06 23:27:00,
2013-06-06 19:33:00,63.3,50.9,30.16,North,0,0.0,0.0,64,0.00,,,0.00,pywws,2013-06-06 23:33:00,
2013-06-06 19:39:00,63.1,50.8,30.16,West,270,0.0,0.0,64,0.00,,,0.00,pywws,2013-06-06 23:39:00,
2013-06-06 19:44:00,63.1,50.8,30.16,South,180,0.0,0.0,64,0.00,,,0.00,pywws,2013-06-06 23:44:00,
2013-06-06 19:50:00,63.0,50.6,30.15,North,0,0.0,0.0,64,0.00,,,0.00,pywws,2013-06-06 23:50:00,
2013-06-06 19:56:00,62.6,49.8,30.15,West,270,0.0,0.0,63,0.00,,,0.00,pywws,2013-06-06 23:56:00,
2013-06-06 20:01:00,62.6,49.8,30.16,North,0,0.0,0.0,63,0.00,,,0.00,pywws,2013-06-07 00:01:00,
2013-06-06 20:06:00,62.4,49.7,30.16,South,180,0.0,0.0,63,0.00,,,0.00,pywws,2013-06-07 00:06:00,
2013-06-06 20:12:00,62.4,49.2,30.16,South,180,0.0,0.0,62,0.00,,,0.00,pywws,2013-06-07 00:12:00,
2013-06-06 20:17:00,62.4,49.2,30.16,West,270,0.0,0.0,62,0.00,,,0.00,pywws,2013-06-07 00:17:00,
2013-06-06 20:22:00,62.1,48.9,30.16,South,180,0.0,0.0,62,0.00,,,0.00,pywws,2013-06-07 00:22:00,
2013-06-06 20:28:00,61.9,49.1,30.16,North,0,0.0,0.0,63,0.00,,,0.00,pywws,2013-06-07 00:28:00,
2013-06-06 20:33:00,61.5,49.2,30.15,North,0,0.0,0.0,64,0.00,,,0.00,pywws,2013-06-07 00:33:00,
2013-06-06 20:40:00,61.0,48.3,30.15,North,0,0.0,0.0,63,0.00,,,0.00,pywws,2013-06-07 00:40:00,
2013-06-06 20:45:00,60.6,48.8,30.15,North,0,0.0,0.0,65,0.00,,,0.00,pywws,2013-06-07 00:45:00,
2013-06-06 20:51:00,60.3,49.3,30.15,North,0,0.0,0.0,67,0.00,,,0.00,pywws,2013-06-07 00:51:00,
2013-06-06 20:57:00,59.7,49.1,30.15,North,0,0.0,0.0,68,0.00,,,0.00,pywws,2013-06-07 00:57:00,
2013-06-06 21:03:00,59.5,50.1,30.16,North,0,0.0,0.0,71,0.00,,,0.00,pywws,2013-06-07 01:03:00,
2013-06-06 21:08:00,59.0,50.7,30.15,North,0,0.0,0.0,74,0.00,,,0.00,pywws,2013-06-07 01:08:00,
2013-06-06 21:14:00,58.8,51.6,30.14,North,0,0.0,0.0,77,0.00,,,0.00,pywws,2013-06-07 01:14:00,
2013-06-06 21:20:00,58.3,51.4,30.15,North,0,0.0,0.0,78,0.00,,,0.00,pywws,2013-06-07 01:20:00,
2013-06-06 21:26:00,58.1,52.0,30.15,North,0,0.0,0.0,80,0.00,,,0.00,pywws,2013-06-07 01:26:00,
2013-06-06 21:32:00,57.7,51.9,30.15,North,0,0.0,0.0,81,0.00,,,0.00,pywws,2013-06-07 01:32:00,
2013-06-06 21:37:00,57.6,52.4,30.14,North,0,0.0,0.0,83,0.00,,,0.00,pywws,2013-06-07 01:37:00,
2013-06-06 21:44:00,57.6,52.8,30.15,North,0,0.0,0.0,84,0.00,,,0.00,pywws,2013-06-07 01:44:00,
2013-06-06 21:52:00,57.6,53.1,30.14,North,0,0.0,0.0,85,0.00,,,0.00,pywws,2013-06-07 01:52:00,
2013-06-06 21:57:00,57.4,52.9,30.14,North,0,0.0,0.0,85,0.00,,,0.00,pywws,2013-06-07 01:57:00,
2013-06-06 22:03:00,57.2,52.7,30.14,East,90,0.0,0.0,85,0.00,,,0.00,pywws,2013-06-07 02:03:00,
2013-06-06 22:09:00,57.2,53.0,30.14,East,90,0.0,0.0,86,0.00,,,0.00,pywws,2013-06-07 02:09:00,
2013-06-06 22:17:00,56.8,53.0,30.14,East,90,0.0,0.0,87,0.00,,,0.00,pywws,2013-06-07 02:17:00,
2013-06-06 22:23:00,56.7,53.1,30.14,North,0,0.0,0.0,88,0.00,,,0.00,pywws,2013-06-07 02:23:00,
2013-06-06 22:29:00,56.7,53.1,30.14,North,0,0.0,0.0,88,0.00,,,0.00,pywws,2013-06-07 02:29:00,
2013-06-06 22:35:00,56.5,53.3,30.14,North,0,0.0,0.0,89,0.00,,,0.00,pywws,2013-06-07 02:35:00,
2013-06-06 22:40:00,56.5,53.6,30.14,North,0,0.0,0.0,90,0.00,,,0.00,pywws,2013-06-07 02:40:00,
2013-06-06 22:46:00,56.5,53.9,30.14,North,0,0.0,0.0,91,0.01,,,0.01,pywws,2013-06-07 02:46:00,
2013-06-06 22:52:00,56.3,53.7,30.14,North,0,0.0,0.0,91,0.01,,,0.01,pywws,2013-06-07 02:52:00,
2013-06-06 22:57:00,56.1,53.8,30.14,North,0,0.0,0.0,92,0.01,,,0.01,pywws,2013-06-07 02:57:00,
2013-06-06 23:03:00,55.8,53.5,30.14,North,0,0.0,0.0,92,0.01,,,0.01,pywws,2013-06-07 03:03:00,
2013-06-06 23:10:00,55.8,53.8,30.14,North,0,0.0,0.0,93,0.01,,,0.01,pywws,2013-06-07 03:10:00,
2013-06-06 23:16:00,55.8,53.8,30.15,North,0,0.0,0.0,93,0.01,,,0.01,pywws,2013-06-07 03:16:00,
2013-06-06 23:22:00,55.9,54.2,30.15,North,0,0.0,0.0,94,0.01,,,0.01,pywws,2013-06-07 03:22:00,
2013-06-06 23:28:00,55.6,54.2,30.14,North,0,0.0,0.0,95,0.01,,,0.01,pywws,2013-06-07 03:28:00,
2013-06-06 23:33:00,55.2,53.8,30.14,North,0,0.0,0.0,95,0.01,,,0.01,pywws,2013-06-07 03:33:00,
2013-06-06 23:39:00,55.4,54.0,30.14,North,0,0.0,0.0,95,0.01,,,0.01,pywws,2013-06-07 03:39:00,
2013-06-06 23:45:00,55.6,54.5,30.14,North,0,0.0,0.0,96,0.01,,,0.01,pywws,2013-06-07 03:45:00,
2013-06-06 23:51:00,55.6,54.5,30.13,North,0,0.0,0.0,96,0.01,,,0.02,pywws,2013-06-07 03:51:00,
2013-06-06 23:56:00,55.6,54.5,30.13,North,0,0.0,0.0,96,0.01,,,0.02,pywws,2013-06-07 03:56:00,